Starkville, MS

5:42 AM CST on February 08, 2016 (GMT -0600)
Bryan

Weather History for KSTF - November, 2013

Change the Weather History Date:

Friday, November 29, 2013

  Actual Average Record
Temperature  
Mean Temperature 38 °F -  
Max Temperature 55 °F 56 °F 68 °F (2014)
Min Temperature 21 °F 36 °F 21 °F (2013)
Degree Days  
Heating Degree Days 27    
Moisture  
Dew Point 25 °F    
Average Humidity 73    
Maximum Humidity 100    
Minimum Humidity 26    
Precipitation  
Precipitation 0.00 in - - ()
Sea Level Pressure  
Sea Level Pressure 30.50 in    
Wind  
Wind Speed 0 mph (NNE)    
Max Wind Speed 6 mph    
Max Gust Speed -    
Visibility 10 miles    
Events      
Averages and records for this station are not official NWS values.
T = Trace of Precipitation, MM = Missing Value Source: NWS Daily Summary

Daily Weather History Graph

Daily Weather History Graph

Search for Another Location

Airport or City:

Trip Planner

Search our weather history database for the weather conditions in past years. The results will help you decide how hot, cold, wet, or windy it might be!

Date:

Astronomy

Nov. 29, 2013 Rise Set
Actual Time 6:39 AM CST 4:47 PM CST
Civil Twilight 6:12 AM CST 5:14 PM CST
Nautical Twilight 5:42 AM CST 5:45 PM CST
Astronomical Twilight 5:12 AM CST 6:15 PM CST
Moon 2:54 AM CST (11/29) 2:23 PM CST (11/29)
Length of Visible Light 11h 02m
Length of Day
10h 07m
Waning Crescent, 14% of the Moon is Illuminated
Nov 29
Waning Crescent
Dec 2
New
Dec 9
First Quarter
Dec 17
Full
Dec 25
Last Quarter

Hourly Weather History & Observations

Time (CST) Temp. Windchill Dew Point Humidity Pressure Visibility Wind Dir Wind Speed Gust Speed Precip Events Conditions
12:15 AM 26.6 °F - 24.8 °F 93% 30.50 in 10.0 mi Calm Calm - N/A   Clear
12:35 AM 26.6 °F - 24.8 °F 93% 30.50 in 10.0 mi Calm Calm - N/A   Clear
12:55 AM 26.6 °F - 24.8 °F 93% 30.50 in 10.0 mi Calm Calm - N/A   Clear
1:15 AM 24.8 °F - 23.0 °F 93% 30.50 in 10.0 mi Calm Calm - N/A   Clear
1:35 AM 26.6 °F - 23.0 °F 86% 30.51 in 10.0 mi Calm Calm - N/A   Clear
1:55 AM 24.8 °F - 23.0 °F 93% 30.51 in 10.0 mi Calm Calm - N/A   Clear
2:15 AM 24.8 °F - 23.0 °F 93% 30.51 in 10.0 mi Calm Calm - N/A   Clear
2:35 AM 24.8 °F - 23.0 °F 93% 30.51 in 10.0 mi Calm Calm - N/A   Clear
2:55 AM 23.0 °F - 23.0 °F 100% 30.51 in 10.0 mi Calm Calm - N/A   Clear
3:15 AM 23.0 °F - 23.0 °F 100% 30.51 in 10.0 mi Calm Calm - N/A   Clear
3:35 AM 23.0 °F - 21.2 °F 93% 30.51 in 10.0 mi Calm Calm - N/A   Clear
3:55 AM 23.0 °F - 23.0 °F 100% 30.51 in 10.0 mi Calm Calm - N/A   Clear
4:15 AM 23.0 °F - 21.2 °F 93% 30.51 in 10.0 mi Calm Calm - N/A   Clear
4:35 AM 23.0 °F - 21.2 °F 93% 30.51 in 10.0 mi Calm Calm - N/A   Clear
4:55 AM 23.0 °F - 21.2 °F 93% 30.52 in 10.0 mi Calm Calm - N/A   Clear
5:15 AM 21.2 °F - 21.2 °F 100% 30.52 in 10.0 mi Calm Calm - N/A   Clear
5:35 AM 21.2 °F - 21.2 °F 100% 30.52 in 10.0 mi Calm Calm - N/A   Clear
5:55 AM 21.2 °F - 21.2 °F 100% 30.53 in 10.0 mi Calm Calm - N/A   Clear
6:15 AM 21.2 °F - 19.4 °F 93% 30.54 in 10.0 mi Calm Calm - N/A   Clear
6:35 AM 21.2 °F - 19.4 °F 93% 30.55 in 10.0 mi Calm Calm - N/A   Clear
6:55 AM 21.2 °F - 19.4 °F 93% 30.56 in 10.0 mi Calm Calm - N/A   Clear
7:15 AM 21.2 °F - 21.2 °F 100% 30.56 in 10.0 mi Calm Calm - N/A   Clear
7:35 AM 24.8 °F - 23.0 °F 93% 30.56 in 10.0 mi Calm Calm - N/A   Clear
7:55 AM 28.4 °F - 26.6 °F 93% 30.56 in 10.0 mi Calm Calm - N/A   Clear
8:15 AM 30.2 °F - 26.6 °F 86% 30.57 in 10.0 mi Calm Calm - N/A   Clear
8:35 AM 32.0 °F - 28.4 °F 87% 30.57 in 10.0 mi Calm Calm - N/A   Clear
8:55 AM 33.8 °F - 30.2 °F 87% 30.57 in 10.0 mi Calm Calm - N/A   Clear
9:15 AM 37.4 °F - 30.2 °F 75% 30.57 in 10.0 mi Calm Calm - N/A   Clear
9:35 AM 41.0 °F - 28.4 °F 61% 30.57 in 10.0 mi Calm Calm - N/A   Clear
9:55 AM 42.8 °F 41.1 °F 28.4 °F 57% 30.57 in 10.0 mi NNE 3.5 mph - N/A   Clear
10:15 AM 44.6 °F 41.4 °F 23.0 °F 43% 30.56 in 10.0 mi NE 5.8 mph - N/A   Clear
10:35 AM 46.4 °F 45.2 °F 23.0 °F 40% 30.56 in 10.0 mi NNE 3.5 mph - N/A   Clear
10:55 AM 46.4 °F 44.3 °F 23.0 °F 40% 30.55 in 10.0 mi NNE 4.6 mph - N/A   Clear
11:15 AM 50.0 °F - 23.0 °F 35% 30.54 in 10.0 mi NE 3.5 mph - N/A   Clear
11:35 AM 50.0 °F - 24.8 °F 37% 30.54 in 10.0 mi ENE 3.5 mph - N/A   Clear
11:55 AM 50.0 °F - 21.2 °F 32% 30.52 in 10.0 mi Calm Calm - N/A   Clear
12:15 PM 50.0 °F - 23.0 °F 35% 30.51 in 10.0 mi Calm Calm - N/A   Clear
12:35 PM 51.8 °F - 21.2 °F 30% 30.51 in 10.0 mi Calm Calm - N/A   Clear
12:55 PM 53.6 °F - 21.2 °F 28% 30.50 in 10.0 mi Calm Calm - N/A   Clear
1:15 PM 53.6 °F - 23.0 °F 30% 30.49 in 10.0 mi Calm Calm - N/A   Clear
1:35 PM 53.6 °F - 23.0 °F 30% 30.48 in 10.0 mi Calm Calm - N/A   Clear
1:55 PM 53.6 °F - 23.0 °F 30% 30.47 in 10.0 mi Calm Calm - N/A   Clear
2:15 PM 55.4 °F - 23.0 °F 29% 30.47 in 10.0 mi NNE 3.5 mph - N/A   Clear
2:35 PM 55.4 °F - 23.0 °F 29% 30.47 in 10.0 mi Calm Calm - N/A   Clear
2:55 PM 55.4 °F - 23.0 °F 29% 30.47 in 10.0 mi NW 4.6 mph - N/A   Clear
3:15 PM 55.4 °F - 21.2 °F 26% 30.47 in 10.0 mi Calm Calm - N/A   Clear
3:35 PM 55.4 °F - 23.0 °F 29% 30.47 in 10.0 mi Calm Calm - N/A   Clear
3:55 PM 53.6 °F - 23.0 °F 30% 30.47 in 10.0 mi North 3.5 mph - N/A   Clear
4:15 PM 53.6 °F - 21.2 °F 28% 30.47 in 10.0 mi Calm Calm - N/A   Clear
4:35 PM 51.8 °F - 23.0 °F 33% 30.46 in 10.0 mi North 3.5 mph - N/A   Clear
4:55 PM 44.6 °F - 26.6 °F 49% 30.47 in 10.0 mi Calm Calm - N/A   Clear
5:15 PM 42.8 °F - 30.2 °F 61% 30.46 in 10.0 mi Calm Calm - N/A   Clear
5:35 PM 39.2 °F - 28.4 °F 65% 30.47 in 10.0 mi Calm Calm - N/A   Clear
5:55 PM 37.4 °F - 28.4 °F 70% 30.47 in 10.0 mi Calm Calm - N/A   Clear
6:15 PM 35.6 °F - 30.2 °F 81% 30.47 in 10.0 mi Calm Calm - N/A   Clear
6:35 PM 33.8 °F - 30.2 °F 87% 30.47 in 10.0 mi Calm Calm - N/A   Clear
6:55 PM 33.8 °F - 30.2 °F 87% 30.46 in 10.0 mi Calm Calm - N/A   Clear
7:15 PM 33.8 °F - 30.2 °F 87% 30.46 in 10.0 mi Calm Calm - N/A   Clear
7:35 PM 32.0 °F - 30.2 °F 93% 30.45 in 10.0 mi Calm Calm - N/A   Clear
7:55 PM 32.0 °F - 30.2 °F 93% 30.45 in 10.0 mi Calm Calm - N/A   Clear
8:15 PM 32.0 °F - 28.4 °F 87% 30.45 in 10.0 mi Calm Calm - N/A   Clear
8:35 PM 30.2 °F - 28.4 °F 93% 30.46 in 10.0 mi Calm Calm - N/A   Clear
8:55 PM 30.2 °F - 28.4 °F 93% 30.47 in 10.0 mi Calm Calm - N/A   Clear
9:15 PM 30.2 °F - 28.4 °F 93% 30.47 in 10.0 mi Calm Calm - N/A   Clear
9:35 PM 30.2 °F - 28.4 °F 93% 30.46 in 10.0 mi Calm Calm - N/A   Clear
9:55 PM 30.2 °F - 28.4 °F 93% 30.47 in 10.0 mi Calm Calm - N/A   Clear
10:15 PM 30.2 °F - 28.4 °F 93% 30.45 in 10.0 mi Calm Calm - N/A   Clear
10:35 PM 30.2 °F - 28.4 °F 93% 30.45 in 10.0 mi Calm Calm - N/A   Clear
10:55 PM 28.4 °F - 28.4 °F 100% 30.46 in 10.0 mi Calm Calm - N/A   Clear
11:15 PM 28.4 °F - 28.4 °F 100% 30.46 in 10.0 mi Calm Calm - N/A   Clear
11:35 PM 28.4 °F - 26.6 °F 93% 30.46 in 10.0 mi Calm Calm - N/A   Clear
11:55 PM 28.4 °F - 26.6 °F 93% 30.45 in 10.0 mi Calm Calm - N/A   Clear